Location: Gradaro
(45.0833°N, 10.8833°E)
Time: 09:39:55
(UTC+00:00)

Genesis I - Pass Details

Date: 29 November 2020
Orbit: 493 x 528 km, 64.5° (Epoch: 23 January)

Event Time Altitude Azimuth Distance (km) Brightness Sun altitude
Exits shadow 05:25:21 - 246° (WSW) 1,748 5.5 -11.6°
Reaches altitude 10° 05:25:29 10° 246° (WSW) 1,699 5.4 -11.6°
Maximum altitude 05:28:59 35° 314° (NW) 836 3.8 -11.0°
Drops below altitude 10° 05:32:32 10° 21° (NNE) 1,727 5.9 -10.4°
Sets 05:34:52 0° 30° (NNE) 2,622 6.9 -10.0°
